• In Denmark
  • List of Countries
  • For 7 days
  • Water Temperature
  • Satellite Maps
  • Weather Map
  • Weather Widgets
  • user-avatar
    Login

    Hourly Weather Kalgoorlie

    Today, 22 February, Thursday

    Time Temperature Precipitation Wind Pressure Humidity
    00:00 +21°C° 0 mm 2 mps 725 mmHg 86%
    01:00 +21°C° 0 mm 2 mps 725 mmHg 87%
    02:00 +21°C° 0 mm 2 mps 725 mmHg 88%
    03:00 +21°C° 0 mm 2 mps 725 mmHg 89%
    04:00 +21°C° 0 mm 2 mps 725 mmHg 89%
    05:00 +21°C° 0 mm 2 mps 725 mmHg 90%
    06:00 +21°C° 0 mm 2 mps 725 mmHg 86%
    07:00 +23°C° 0 mm 2 mps 725 mmHg 82%
    08:00 +24°C° 0 mm 2 mps 725 mmHg 79%
    09:00 +25°C° 0 mm 1 mps 725 mmHg 72%
    10:00 +26°C° 0 mm 1 mps 725 mmHg 64%
    11:00 +28°C° 0 mm 1 mps 725 mmHg 57%
    12:00 +29°C° 0 mm 1 mps 725 mmHg 53%
    13:00 +30°C° 0 mm 1 mps 724 mmHg 48%
    14:00 +31°C° 0 mm 1 mps 724 mmHg 44%
    15:00 +31°C° 0 mm 1 mps 724 mmHg 42%
    16:00 +31°C° 0 mm 1 mps 724 mmHg 40%
    17:00 +31°C° 0 mm 1 mps 724 mmHg 38%
    18:00 +31°C° 0 mm 1 mps 724 mmHg 40%
    19:00 +30°C° 0 mm 1 mps 724 mmHg 41%
    20:00 +30°C° 0 mm 1 mps 725 mmHg 42%
    21:00 +29°C° 0 mm 2 mps 725 mmHg 44%
    22:00 +29°C° 0 mm 2 mps 725 mmHg 47%
    23:00 +28°C° 0 mm 2 mps 725 mmHg 49%

    Tomorrow, 23 February, Friday

    Time Temperature Precipitation Wind Pressure Humidity
    00:00 +27°C° 0 mm 3 mps 725 mmHg 53%
    01:00 +27°C° 0 mm 4 mps 725 mmHg 58%
    02:00 +26°C° 0 mm 4 mps 725 mmHg 62%
    03:00 +26°C° 0 mm 4 mps 725 mmHg 66%
    04:00 +25°C° 0 mm 4 mps 725 mmHg 70%
    05:00 +25°C° 0 mm 4 mps 725 mmHg 73%
    06:00 +26°C° 0 mm 4 mps 725 mmHg 69%
    07:00 +27°C° 0 mm 4 mps 726 mmHg 65%
    08:00 +28°C° 0 mm 5 mps 726 mmHg 61%
    09:00 +29°C° 0 mm 4 mps 726 mmHg 53%
    10:00 +32°C° 0 mm 4 mps 726 mmHg 44%
    11:00 +34°C° 0 mm 4 mps 726 mmHg 35%
    12:00 +35°C° 0 mm 3 mps 726 mmHg 32%
    13:00 +35°C° 0 mm 3 mps 725 mmHg 30%
    14:00 +36°C° 0 mm 2 mps 725 mmHg 27%
    15:00 +35°C° 0 mm 2 mps 725 mmHg 28%
    16:00 +35°C° 0 mm 3 mps 725 mmHg 29%
    17:00 +35°C° 0 mm 3 mps 725 mmHg 30%
    18:00 +34°C° 0 mm 4 mps 726 mmHg 33%
    19:00 +33°C° 0 mm 4 mps 726 mmHg 36%
    20:00 +32°C° 0 mm 5 mps 727 mmHg 39%
    21:00 +29°C° 0 mm 6 mps 727 mmHg 48%
    22:00 +27°C° 0 mm 8 mps 728 mmHg 56%
    23:00 +26°C° 0 mm 9 mps 728 mmHg 65%

    Day after tomorrow, 24 February, Saturday

    Time Temperature Precipitation Wind Pressure Humidity
    00:00 +24°C° 0 mm 9 mps 729 mmHg 67%
    01:00 +23°C° 0 mm 9 mps 729 mmHg 70%
    02:00 +22°C° 0 mm 9 mps 729 mmHg 73%
    03:00 +21°C° 0 mm 9 mps 729 mmHg 73%
    04:00 +21°C° 0 mm 9 mps 729 mmHg 73%
    05:00 +19°C° 0 mm 9 mps 730 mmHg 74%
    06:00 +21°C° 0 mm 9 mps 730 mmHg 72%
    07:00 +21°C° 0 mm 9 mps 731 mmHg 70%
    08:00 +21°C° 0 mm 9 mps 731 mmHg 68%
    09:00 +23°C° 0 mm 8 mps 732 mmHg 64%
    10:00 +24°C° 0 mm 8 mps 732 mmHg 60%
    11:00 +26°C° 0 mm 8 mps 732 mmHg 56%
    12:00 +26°C° 0 mm 8 mps 732 mmHg 57%
    13:00 +26°C° 0 mm 7 mps 731 mmHg 58%
    14:00 +24°C° 0 mm 7 mps 731 mmHg 58%
    15:00 +24°C° 0 mm 7 mps 731 mmHg 59%
    16:00 +24°C° 0 mm 7 mps 731 mmHg 59%
    17:00 +24°C° 0 mm 7 mps 730 mmHg 60%
    18:00 +24°C° 0.1 mm 7 mps 731 mmHg 60%
    19:00 +24°C° 0.1 mm 7 mps 731 mmHg 61%
    20:00 +24°C° 0.1 mm 7 mps 731 mmHg 62%
    21:00 +23°C° 0.1 mm 7 mps 731 mmHg 60%
    22:00 +23°C° 0.1 mm 7 mps 731 mmHg 58%
    23:00 +23°C° 0.1 mm 8 mps 731 mmHg 57%

    25 February, Sunday

    Time Temperature Precipitation Wind Pressure Humidity
    00:00 +22°C° 0.1 mm 8 mps 730 mmHg 56%
    01:00 +22°C° 0.1 mm 8 mps 730 mmHg 56%
    02:00 +21°C° 0.1 mm 8 mps 730 mmHg 55%
    03:00 +21°C° 0 mm 8 mps 729 mmHg 56%
    04:00 +20°C° 0 mm 8 mps 729 mmHg 57%
    05:00 +20°C° 0 mm 8 mps 729 mmHg 59%
    06:00 +19°C° 0.2 mm 9 mps 729 mmHg 61%
    07:00 +19°C° 0.2 mm 9 mps 729 mmHg 63%
    08:00 +19°C° 0.2 mm 9 mps 729 mmHg 65%
    09:00 +20°C° 0.5 mm 8 mps 729 mmHg 63%
    10:00 +21°C° 0.5 mm 8 mps 728 mmHg 61%
    11:00 +22°C° 0.5 mm 7 mps 728 mmHg 59%
    12:00 +22°C° 0.1 mm 8 mps 727 mmHg 59%
    13:00 +23°C° 0.1 mm 8 mps 727 mmHg 59%
    14:00 +23°C° 0.1 mm 8 mps 726 mmHg 59%
    15:00 +23°C° 0 mm 7 mps 726 mmHg 57%
    16:00 +24°C° 0 mm 7 mps 726 mmHg 55%
    17:00 +26°C° 0 mm 6 mps 725 mmHg 53%
    18:00 +24°C° 0.1 mm 6 mps 725 mmHg 54%
    19:00 +25°C° 0.1 mm 5 mps 725 mmHg 54%
    20:00 +25°C° 0.1 mm 5 mps 726 mmHg 54%
    21:00 +24°C° 0.1 mm 6 mps 725 mmHg 54%
    22:00 +24°C° 0.1 mm 6 mps 725 mmHg 54%
    23:00 +24°C° 0.1 mm 7 mps 725 mmHg 55%

    26 February, Monday

    Time Temperature Precipitation Wind Pressure Humidity
    00:00 +24°C° 0.8 mm 7 mps 724 mmHg 55%
    01:00 +24°C° 0.8 mm 6 mps 724 mmHg 55%
    02:00 +24°C° 0.8 mm 6 mps 724 mmHg 55%
    03:00 +23°C° 0.4 mm 6 mps 724 mmHg 55%
    04:00 +23°C° 0.4 mm 5 mps 723 mmHg 55%
    05:00 +22°C° 0.4 mm 5 mps 723 mmHg 55%
    06:00 +23°C° 0.4 mm 4 mps 723 mmHg 55%
    07:00 +24°C° 0.4 mm 3 mps 724 mmHg 55%
    08:00 +24°C° 0.4 mm 2 mps 724 mmHg 55%
    09:00 +26°C° 0 mm 2 mps 724 mmHg 50%
    10:00 +28°C° 0 mm 3 mps 724 mmHg 45%
    11:00 +30°C° 0 mm 3 mps 723 mmHg 40%
    12:00 +32°C° 0 mm 4 mps 723 mmHg 38%
    13:00 +34°C° 0 mm 4 mps 722 mmHg 36%
    14:00 +35°C° 0 mm 5 mps 722 mmHg 34%
    15:00 +35°C° 0 mm 5 mps 721 mmHg 33%
    16:00 +35°C° 0 mm 5 mps 721 mmHg 33%
    17:00 +35°C° 0 mm 5 mps 721 mmHg 33%
    18:00 +34°C° 0 mm 5 mps 721 mmHg 34%
    19:00 +33°C° 0 mm 4 mps 721 mmHg 36%
    20:00 +32°C° 0 mm 4 mps 722 mmHg 38%
    21:00 +30°C° 0 mm 5 mps 722 mmHg 36%
    22:00 +29°C° 0 mm 6 mps 722 mmHg 34%
    23:00 +28°C° 0 mm 6 mps 722 mmHg 32%

    27 February, Tuesday

    Time Temperature Precipitation Wind Pressure Humidity
    00:00 +26°C° 0 mm 6 mps 722 mmHg 36%
    01:00 +24°C° 0 mm 6 mps 722 mmHg 39%
    02:00 +23°C° 0 mm 6 mps 722 mmHg 43%
    03:00 +22°C° 0 mm 7 mps 723 mmHg 48%
    04:00 +21°C° 0 mm 7 mps 723 mmHg 53%
    05:00 +20°C° 0 mm 7 mps 724 mmHg 57%
    06:00 +18°C° 0 mm 7 mps 724 mmHg 55%
    07:00 +18°C° 0 mm 7 mps 725 mmHg 52%
    08:00 +18°C° 0 mm 8 mps 726 mmHg 49%
    09:00 +21°C° 0 mm 7 mps 726 mmHg 45%
    10:00 +22°C° 0 mm 7 mps 726 mmHg 42%
    11:00 +24°C° 0 mm 7 mps 726 mmHg 39%
    12:00 +26°C° 0 mm 7 mps 726 mmHg 35%
    13:00 +27°C° 0 mm 7 mps 726 mmHg 31%
    14:00 +28°C° 0 mm 7 mps 726 mmHg 27%
    15:00 +28°C° 0 mm 7 mps 726 mmHg 25%
    16:00 +28°C° 0 mm 6 mps 726 mmHg 23%
    17:00 +28°C° 0 mm 6 mps 726 mmHg 21%
    18:00 +26°C° 0 mm 6 mps 727 mmHg 23%
    19:00 +24°C° 0 mm 6 mps 727 mmHg 25%
    20:00 +23°C° 0 mm 6 mps 728 mmHg 27%
    21:00 +22°C° 0 mm 6 mps 728 mmHg 34%
    22:00 +20°C° 0 mm 7 mps 728 mmHg 41%
    23:00 +17°C° 0 mm 8 mps 729 mmHg 48%
    Show more